Total_Precipitation_Accumulation
0.06 0.05 0.04 0.03 0.02 0.03 0.03 0.02 0.02 0.01 0.01 0.01 0.01 0.02 0.02 0.02 0.02 0.01 0.01 0.01 0.01 0.01 0.01 0.01 0.02 0.02 0.01 0.02 0.01 0.00 0.00 0.00 0.00 0.00 0.00 0.00 0.00 0.00 0.00 0.00 0.00 0.00 0.00 0.00 0.00 0.00 0.01 0.01 0.01 0.00 0.01 0.00 0.00 0.01 0.01 0.05 0.14 0.62 1.62 1.46 2.34 1.73 1.60 1.52 1.72 1.00 2.63 3.24 2.28 2.57 2.19 1.53 0.92 0.81 1.56 1.40 1.89 1.50 0.76 0.76 0.18 0.24 0.11 0.06 0.03 0.05 0.03 0.04
0.04 0.04 0.02 0.01 0.01 0.02 0.02 0.02 0.01 0.01 0.01 0.01 0.02 0.03 0.02 0.02 0.02 0.01 0.01 0.01 0.01 0.01 0.01 0.02 0.01 0.01 0.02 0.01 0.00 0.00 0.01 0.00 0.00 0.00 0.00 0.00 0.00 0.00 0.00 0.00 0.00 0.00 0.00 0.00 0.00 0.00 0.00 0.01 0.00 0.00 0.00 0.02 0.00 0.02 0.01 0.12 0.09 0.66 0.88 1.71 2.53 0.96 1.37 0.99 0.95 1.12 1.53 2.45 2.68 2.50 1.26 1.78 1.29 1.08 0.79 1.09 0.94 0.77 0.78 0.50 0.34 0.21 0.07 0.05 0.04 0.04 0.03 0.04
0.03 0.03 0.02 0.01 0.01 0.02 0.01 0.01 0.01 0.01 0.01 0.01 0.02 0.03 0.02 0.02 0.01 0.01 0.01 0.01 0.01 0.01 0.02 0.01 0.02 0.01 0.01 0.01 0.00 0.00 0.01 0.00 0.00 0.00 0.00 0.00 0.00 0.00 0.00 0.00 0.00 0.00 0.00 0.00 0.00 0.00 0.00 0.00 0.00 0.00 0.00 0.01 0.00 0.04 0.00 0.23 0.06 0.54 0.53 1.49 1.80 0.84 0.90 0.58 1.03 1.30 0.94 1.28 1.62 1.32 1.43 1.74 1.72 1.90 1.21 1.61 0.64 0.99 0.61 0.34 0.21 0.11 0.09 0.09 0.06 0.03 0.03 0.03
0.03 0.02 0.01 0.01 0.01 0.02 0.02 0.02 0.02 0.02 0.02 0.03 0.02 0.02 0.02 0.01 0.01 0.00 0.01 0.01 0.01 0.01 0.01 0.02 0.01 0.01 0.01 0.01 0.00 0.00 0.00 0.00 0.00 0.00 0.00 0.00 0.00 0.00 0.00 0.00 0.00 0.00 0.00 0.00 0.00 0.00 0.00 0.00 0.00 0.00 0.00 0.00 0.01 0.00 0.02 0.12 0.10 0.56 0.48 0.83 1.31 0.82 0.86 0.78 0.81 1.49 1.37 1.17 1.04 1.20 1.14 1.53 1.36 1.96 1.68 1.14 1.13 1.53 1.31 0.37 0.24 0.09 0.11 0.04 0.02 0.04 0.03 0.04
0.03 0.01 0.01 0.01 0.01 0.01 0.01 0.02 0.02 0.03 0.03 0.02 0.02 0.02 0.01 0.01 0.01 0.01 0.01 0.00 0.00 0.00 0.01 0.01 0.02 0.01 0.00 0.00 0.00 0.00 0.00 0.00 0.00 0.00 0.00 0.00 0.00 0.00 0.00 0.00 0.00 0.00 0.00 0.00 0.00 0.00 0.00 0.00 0.00 0.00 0.00 0.01 0.01 0.00 0.01 0.01 0.02 0.14 0.53 0.82 0.28 0.60 0.62 0.70 0.63 1.22 1.17 1.38 1.05 1.20 1.50 1.98 1.28 1.41 1.96 0.74 1.48 1.75 1.23 0.88 0.55 0.22 0.03 0.02 0.01 0.02 0.02 0.02
0.02 0.01 0.01 0.01 0.01 0.01 0.01 0.01 0.01 0.02 0.02 0.02 0.01 0.01 0.01 0.01 0.01 0.01 0.00 0.00 0.01 0.01 0.01 0.01 0.02 0.01 0.01 0.00 0.00 0.00 0.00 0.00 0.00 0.00 0.00 0.00 0.00 0.00 0.00 0.00 0.00 0.00 0.00 0.00 0.00 0.00 0.00 0.00 0.00 0.00 0.00 0.00 0.01 0.05 0.02 0.02 0.18 0.24 0.22 0.14 0.18 0.24 1.10 0.60 0.55 0.67 0.61 0.87 1.59 1.10 1.32 0.77 0.94 1.58 1.19 0.63 2.10 1.64 1.10 0.48 0.48 0.20 0.04 0.03 0.02 0.02 0.02 0.01
0.02 0.01 0.01 0.01 0.01 0.01 0.01 0.01 0.01 0.01 0.01 0.01 0.01 0.01 0.01 0.01 0.00 0.00 0.00 0.00 0.00 0.01 0.01 0.01 0.01 0.01 0.00 0.00 0.00 0.00 0.00 0.00 0.00 0.00 0.00 0.00 0.00 0.00 0.00 0.00 0.00 0.00 0.00 0.00 0.00 0.00 0.00 0.00 0.00 0.00 0.00 0.01 0.00 0.02 0.00 0.02 0.16 0.16 0.94 0.18 0.25 0.42 0.39 0.36 0.52 0.91 0.63 1.27 1.80 1.62 0.58 1.18 0.92 1.43 1.10 1.37 1.14 1.53 0.73 0.56 0.24 0.23 0.13 0.02 0.02 0.03 0.02 0.01
0.02 0.01 0.02 0.02 0.01 0.01 0.01 0.01 0.01 0.01 0.01 0.01 0.01 0.01 0.00 0.00 0.01 0.00 0.00 0.00 0.00 0.01 0.01 0.01 0.01 0.00 0.00 0.00 0.00 0.00 0.00 0.00 0.00 0.00 0.00 0.00 0.00 0.00 0.00 0.00 0.00 0.00 0.00 0.00 0.00 0.00 0.00 0.00 0.00 0.00 0.00 0.05 0.02 0.01 0.01 0.01 0.01 0.14 0.33 0.13 0.16 0.19 0.54 0.32 0.36 0.83 0.33 1.08 0.93 0.92 0.80 1.52 1.24 1.92 1.11 1.31 0.86 0.45 0.69 0.33 0.26 0.16 0.11 0.01 0.03 0.01 0.02 0.04
0.01 0.02 0.01 0.01 0.01 0.01 0.01 0.01 0.01 0.01 0.01 0.01 0.01 0.00 0.00 0.01 0.01 0.00 0.00 0.01 0.00 0.00 0.01 0.02 0.00 0.00 0.01 0.00 0.00 0.00 0.00 0.00 0.00 0.00 0.00 0.00 0.00 0.00 0.00 0.00 0.00 0.00 0.00 0.00 0.00 0.00 0.00 0.00 0.00 0.00 0.00 0.02 0.00 0.01 0.00 0.01 0.06 0.06 0.07 0.31 0.43 0.16 0.25 0.63 0.36 0.58 0.90 0.95 1.07 0.95 2.34 1.84 1.35 2.04 1.47 1.53 0.98 0.57 0.36 0.32 0.21 0.08 0.07 0.02 0.02 0.01 0.01 0.02
0.01 0.01 0.01 0.01 0.01 0.01 0.01 0.01 0.01 0.01 0.01 0.01 0.01 0.01 0.01 0.00 0.00 0.00 0.00 0.00 0.00 0.00 0.01 0.01 0.00 0.00 0.00 0.00 0.00 0.00 0.00 0.00 0.00 0.00 0.00 0.00 0.00 0.00 0.00 0.00 0.00 0.00 0.00 0.00 0.00 0.00 0.00 0.00 0.00 0.00 0.00 0.00 0.00 0.01 0.00 0.00 0.06 0.00 0.05 0.11 0.99 0.33 0.17 0.46 0.45 1.08 1.12 1.42 1.51 1.71 0.75 1.86 1.18 0.89 1.51 1.25 0.89 0.60 0.48 0.22 0.37 0.26 0.05 0.02 0.00 0.01 0.02 0.01
0.02 0.01 0.01 0.01 0.01 0.01 0.01 0.01 0.01 0.01 0.01 0.01 0.01 0.00 0.00 0.00 0.00 0.00 0.01 0.00 0.00 0.01 0.01 0.01 0.00 0.01 0.00 0.00 0.00 0.00 0.00 0.00 0.00 0.00 0.00 0.00 0.00 0.00 0.00 0.00 0.00 0.00 0.00 0.00 0.00 0.00 0.00 0.00 0.00 0.00 0.00 0.03 0.00 0.00 0.00 0.00 0.14 0.02 0.01 0.15 0.54 0.45 0.24 0.50 0.51 0.45 0.76 0.82 1.42 2.70 1.63 1.47 1.76 1.21 1.57 1.33 0.59 0.52 0.27 0.11 0.15 0.09 0.08 0.03 0.03 0.01 0.00 0.01
0.01 0.01 0.01 0.00 0.01 0.01 0.01 0.01 0.01 0.01 0.00 0.00 0.01 0.01 0.00 0.01 0.01 0.00 0.00 0.00 0.00 0.01 0.00 0.00 0.00 0.00 0.00 0.00 0.00 0.00 0.00 0.00 0.00 0.00 0.00 0.00 0.00 0.00 0.00 0.00 0.00 0.00 0.00 0.00 0.00 0.00 0.00 0.00 0.00 0.00 0.00 0.00 0.08 0.00 0.00 0.00 0.03 0.00 0.12 0.37 0.81 0.94 0.75 0.71 0.74 0.65 0.73 0.72 1.45 1.02 1.76 2.19 1.19 1.29 1.34 1.07 1.01 0.67 0.26 0.08 0.08 0.06 0.02 0.00 0.00 0.01 0.00 0.01
0.01 0.01 0.01 0.00 0.01 0.01 0.01 0.01 0.01 0.01 0.01 0.01 0.01 0.01 0.01 0.01 0.00 0.00 0.00 0.00 0.00 0.01 0.01 0.01 0.01 0.00 0.00 0.00 0.00 0.00 0.00 0.00 0.00 0.00 0.00 0.00 0.00 0.00 0.00 0.00 0.00 0.00 0.00 0.00 0.00 0.00 0.00 0.00 0.00 0.00 0.00 0.00 0.00 0.00 0.00 0.00 0.02 0.00 0.01 1.12 0.40 1.11 0.82 0.77 1.58 1.78 0.52 1.02 0.62 1.42 1.91 1.28 1.46 1.39 1.48 1.60 0.93 0.52 0.33 0.10 0.13 0.09 0.06 0.03 0.00 0.00 0.00 0.01
0.01 0.00 0.00 0.01 0.01 0.01 0.01 0.01 0.01 0.01 0.01 0.01 0.01 0.01 0.01 0.01 0.00 0.00 0.00 0.00 0.00 0.01 0.00 0.00 0.00 0.00 0.00 0.00 0.00 0.00 0.00 0.00 0.00 0.00 0.00 0.00 0.00 0.00 0.00 0.00 0.00 0.00 0.00 0.00 0.00 0.00 0.00 0.00 0.00 0.00 0.00 0.00 0.00 0.00 0.00 0.01 0.00 0.05 0.02 0.04 0.27 0.26 0.85 1.03 1.75 1.24 1.14 0.65 1.20 1.21 1.61 1.69 1.55 1.63 1.37 1.35 0.93 0.56 0.42 0.32 0.11 0.18 0.06 0.02 0.00 0.00 0.00 0.00
0.01 0.00 0.01 0.01 0.01 0.01 0.01 0.01 0.01 0.01 0.01 0.01 0.00 0.01 0.01 0.00 0.00 0.00 0.00 0.00 0.00 0.00 0.00 0.01 0.00 0.00 0.00 0.00 0.00 0.00 0.00 0.00 0.00 0.00 0.00 0.00 0.00 0.00 0.00 0.00 0.00 0.00 0.00 0.00 0.00 0.00 0.00 0.00 0.00 0.00 0.00 0.00 0.00 0.00 0.00 0.00 0.00 0.01 0.04 0.10 0.09 0.17 0.78 1.28 1.01 1.26 0.67 0.46 1.07 0.66 1.35 1.71 1.37 1.19 1.20 0.69 0.73 0.79 0.91 0.53 0.15 0.20 0.18 0.03 0.01 0.01 0.01 0.01
0.00 0.00 0.00 0.01 0.01 0.01 0.01 0.00 0.00 0.00 0.01 0.01 0.01 0.00 0.00 0.00 0.00 0.00 0.00 0.00 0.00 0.00 0.01 0.00 0.00 0.00 0.00 0.00 0.00 0.00 0.00 0.00 0.00 0.00 0.00 0.00 0.00 0.00 0.00 0.00 0.00 0.00 0.00 0.00 0.00 0.00 0.00 0.00 0.00 0.00 0.00 0.00 0.00 0.00 0.00 0.00 0.01 0.01 0.03 0.17 0.08 0.12 0.51 0.44 0.58 0.94 0.85 0.45 0.73 1.29 1.66 1.27 1.78 1.00 1.22 1.11 1.16 1.01 0.62 0.84 0.75 0.19 0.43 0.14 0.05 0.01 0.02 0.01
0.00 0.00 0.00 0.01 0.01 0.01 0.01 0.00 0.01 0.00 0.01 0.01 0.00 0.00 0.00 0.00 0.00 0.00 0.00 0.00 0.01 0.00 0.00 0.00 0.00 0.00 0.00 0.00 0.00 0.00 0.00 0.00 0.00 0.00 0.00 0.00 0.00 0.00 0.00 0.00 0.00 0.00 0.00 0.00 0.00 0.00 0.00 0.00 0.00 0.00 0.00 0.00 0.00 0.00 0.00 0.00 0.02 0.01 0.01 0.03 0.02 0.10 0.26 0.50 0.43 0.28 0.82 0.39 0.44 0.45 1.17 1.49 1.21 1.04 1.71 1.07 1.00 0.99 1.43 0.78 0.39 0.53 0.29 0.07 0.03 0.02 0.02 0.02
0.00 0.00 0.00 0.01 0.01 0.01 0.01 0.00 0.00 0.00 0.01 0.00 0.00 0.00 0.00 0.00 0.00 0.00 0.00 0.00 0.00 0.00 0.00 0.00 0.00 0.00 0.00 0.00 0.00 0.00 0.00 0.00 0.00 0.00 0.00 0.00 0.00 0.00 0.00 0.00 0.00 0.00 0.00 0.00 0.00 0.00 0.00 0.00 0.00 0.00 0.00 0.00 0.00 0.00 0.00 0.01 0.00 0.01 0.00 0.03 0.04 0.14 0.36 0.40 0.32 0.55 0.18 0.15 0.42 0.80 0.61 0.90 0.91 0.98 1.12 0.91 1.32 1.22 0.60 0.54 0.54 0.17 0.60 0.22 0.01 0.08 0.03 0.02
0.00 0.00 0.00 0.01 0.01 0.01 0.00 0.00 0.00 0.00 0.01 0.00 0.00 0.00 0.00 0.00 0.00 0.00 0.00 0.00 0.00 0.00 0.00 0.00 0.00 0.00 0.00 0.00 0.00 0.00 0.00 0.00 0.00 0.00 0.00 0.00 0.00 0.00 0.00 0.00 0.00 0.00 0.00 0.00 0.00 0.00 0.00 0.00 0.00 0.00 0.00 0.00 0.00 0.00 0.00 0.00 0.00 0.00 0.00 0.02 0.07 0.20 0.60 0.36 0.50 0.26 0.08 0.32 0.49 0.76 0.89 1.31 0.83 0.80 1.09 1.05 1.23 0.86 1.19 1.34 0.85 0.66 0.57 0.44 0.32 0.22 0.04 0.01
0.01 0.01 0.00 0.00 0.00 0.01 0.00 0.00 0.00 0.01 0.01 0.00 0.00 0.00 0.00 0.00 0.00 0.00 0.00 0.00 0.00 0.00 0.00 0.00 0.00 0.00 0.00 0.00 0.00 0.00 0.00 0.00 0.00 0.00 0.00 0.00 0.00 0.00 0.00 0.00 0.00 0.00 0.00 0.00 0.00 0.00 0.00 0.00 0.00 0.00 0.00 0.00 0.00 0.00 0.00 0.00 0.00 0.00 0.00 0.00 0.03 0.09 0.18 0.15 0.30 0.40 0.38 0.56 0.65 0.91 1.02 1.13 0.98 0.66 0.64 0.38 0.76 0.75 0.90 0.96 0.57 0.79 0.54 0.32 0.45 0.14 0.02 0.05
0.00 0.00 0.00 0.00 0.00 0.00 0.00 0.00 0.00 0.00 0.02 0.00 0.00 0.00 0.00 0.00 0.00 0.00 0.00 0.00 0.00 0.00 0.00 0.00 0.00 0.00 0.00 0.00 0.00 0.00 0.00 0.00 0.00 0.00 0.00 0.00 0.00 0.00 0.00 0.00 0.00 0.00 0.00 0.00 0.00 0.00 0.00 0.00 0.00 0.00 0.00 0.00 0.00 0.00 0.00 0.00 0.00 0.00 0.00 0.01 0.01 0.01 0.13 0.03 0.26 0.10 0.43 0.60 1.22 0.63 0.81 0.54 0.64 0.97 1.09 0.81 0.67 0.86 0.78 1.05 0.75 0.32 0.43 0.43 0.15 0.28 0.45 0.08
0.00 0.00 0.00 0.00 0.00 0.00 0.00 0.00 0.00 0.01 0.01 0.00 0.00 0.00 0.00 0.00 0.00 0.00 0.00 0.00 0.00 0.00 0.00 0.00 0.00 0.00 0.00 0.00 0.00 0.00 0.00 0.00 0.00 0.00 0.00 0.00 0.00 0.00 0.00 0.00 0.00 0.00 0.00 0.00 0.00 0.00 0.00 0.00 0.00 0.00 0.00 0.00 0.00 0.00 0.00 0.00 0.00 0.00 0.00 0.01 0.00 0.04 0.01 0.03 0.18 0.04 0.47 0.23 0.70 0.43 0.85 0.93 0.98 1.23 1.58 1.15 0.46 0.64 0.73 0.76 0.59 0.57 0.76 0.91 0.54 0.35 0.22 0.24
0.00 0.00 0.00 0.00 0.00 0.00 0.00 0.00 0.00 0.01 0.00 0.00 0.00 0.00 0.00 0.00 0.00 0.00 0.00 0.00 0.00 0.00 0.00 0.00 0.00 0.00 0.00 0.00 0.00 0.00 0.00 0.00 0.00 0.00 0.00 0.00 0.00 0.00 0.00 0.00 0.00 0.00 0.00 0.00 0.00 0.00 0.00 0.00 0.00 0.00 0.00 0.00 0.00 0.00 0.00 0.00 0.00 0.00 0.00 0.00 0.01 0.01 0.02 0.22 0.34 0.06 0.28 0.25 1.20 0.57 0.73 1.41 1.53 1.14 1.76 1.63 1.44 1.46 1.42 1.90 2.38 1.19 1.44 0.74 0.49 0.37 0.25 0.05
0.00 0.00 0.00 0.00 0.00 0.00 0.00 0.00 0.01 0.00 0.00 0.00 0.00 0.00 0.00 0.00 0.00 0.00 0.00 0.00 0.00 0.00 0.00 0.00 0.00 0.00 0.00 0.00 0.00 0.00 0.00 0.00 0.00 0.00 0.00 0.00 0.00 0.00 0.00 0.00 0.00 0.00 0.00 0.00 0.00 0.00 0.00 0.00 0.00 0.00 0.00 0.00 0.00 0.00 0.00 0.00 0.00 0.00 0.00 0.00 0.00 0.00 0.02 0.01 0.12 0.12 0.18 0.19 0.41 0.49 0.37 0.90 0.80 0.98 1.04 1.47 2.54 2.60 2.23 1.64 2.49 1.83 1.02 0.55 0.43 0.32 0.21 0.35
0.00 0.00 0.00 0.00 0.00 0.00 0.00 0.00 0.00 0.00 0.00 0.00 0.00 0.00 0.00 0.00 0.00 0.00 0.00 0.00 0.00 0.00 0.00 0.00 0.00 0.00 0.00 0.00 0.00 0.00 0.00 0.00 0.00 0.00 0.00 0.00 0.00 0.00 0.00 0.00 0.00 0.00 0.00 0.00 0.00 0.00 0.00 0.00 0.00 0.00 0.00 0.00 0.00 0.00 0.00 0.00 0.00 0.00 0.00 0.00 0.00 0.00 0.00 0.02 0.02 0.09 0.22 0.22 0.06 0.10 0.22 0.39 0.39 0.32 0.37 1.14 1.77 1.08 1.00 0.71 0.78 1.14 0.73 0.45 0.22 0.30 0.30 0.31
0.00 0.00 0.00 0.00 0.01 0.00 0.01 0.00 0.00 0.00 0.00 0.00 0.00 0.00 0.00 0.00 0.00 0.00 0.00 0.00 0.00 0.00 0.00 0.00 0.00 0.00 0.00 0.00 0.00 0.00 0.00 0.00 0.00 0.00 0.00 0.00 0.00 0.00 0.00 0.00 0.00 0.00 0.00 0.00 0.00 0.00 0.00 0.00 0.00 0.00 0.00 0.00 0.00 0.00 0.00 0.00 0.00 0.00 0.00 0.00 0.00 0.00 0.00 0.01 0.01 0.01 0.07 0.08 0.10 0.06 0.34 0.50 0.39 0.64 0.31 0.55 0.80 0.56 1.02 0.89 0.96 0.72 0.75 0.55 0.16 0.18 0.19 0.15
0.00 0.00 0.00 0.00 0.00 0.01 0.00 0.00 0.00 0.00 0.00 0.00 0.00 0.00 0.00 0.00 0.00 0.00 0.00 0.03 0.03 0.00 0.00 0.00 0.00 0.00 0.00 0.00 0.00 0.00 0.01 0.00 0.00 0.00 0.00 0.00 0.00 0.00 0.00 0.00 0.00 0.00 0.00 0.00 0.00 0.00 0.00 0.00 0.00 0.00 0.00 0.00 0.00 0.01 0.00 0.00 0.00 0.00 0.00 0.00 0.00 0.00 0.02 0.00 0.00 0.00 0.01 0.00 0.05 0.03 0.01 0.33 0.46 0.27 0.30 0.46 0.42 0.67 0.98 0.91 0.69 0.48 0.49 0.78 0.27 0.18 0.16 0.17
0.00 0.00 0.00 0.00 0.00 0.02 0.00 0.00 0.00 0.00 0.00 0.00 0.00 0.00 0.00 0.00 0.00 0.00 0.00 0.04 0.00 0.00 0.00 0.00 0.00 0.00 0.00 0.00 0.00 0.00 0.00 0.00 0.01 0.00 0.00 0.00 0.00 0.00 0.00 0.00 0.00 0.00 0.00 0.00 0.00 0.00 0.00 0.00 0.00 0.00 0.00 0.00 0.00 0.00 0.00 0.00 0.00 0.01 0.00 0.00 0.00 0.00 0.00 0.00 0.01 0.01 0.00 0.01 0.14 0.02 0.01 0.04 0.06 0.42 0.24 0.59 0.75 0.72 1.21 0.67 0.51 0.45 0.32 0.48 0.40 0.40 0.75 0.59
0.00 0.00 0.00 0.00 0.00 0.00 0.00 0.00 0.00 0.00 0.00 0.00 0.00 0.00 0.00 0.00 0.00 0.00 0.03 0.14 0.00 0.00 0.00 0.00 0.00 0.00 0.00 0.00 0.00 0.00 0.00 0.00 0.00 0.00 0.00 0.00 0.00 0.00 0.00 0.00 0.00 0.00 0.00 0.00 0.00 0.00 0.00 0.00 0.00 0.00 0.00 0.00 0.00 0.00 0.00 0.00 0.00 0.00 0.00 0.00 0.00 0.00 0.00 0.00 0.00 0.01 0.02 0.01 0.02 0.01 0.01 0.06 0.28 0.52 0.51 0.86 0.88 0.58 0.64 0.55 0.40 0.38 0.42 0.38 0.56 0.48 0.44 0.26
0.00 0.00 0.00 0.00 0.00 0.00 0.00 0.00 0.00 0.00 0.00 0.00 0.00 0.00 0.00 0.00 0.00 0.03 0.03 0.05 0.00 0.00 0.00 0.00 0.00 0.00 0.00 0.00 0.00 0.00 0.00 0.00 0.00 0.00 0.00 0.00 0.00 0.00 0.00 0.00 0.00 0.00 0.00 0.00 0.00 0.00 0.00 0.00 0.00 0.00 0.00 0.00 0.00 0.00 0.00 0.00 0.00 0.00 0.00 0.00 0.00 0.00 0.00 0.00 0.00 0.00 0.01 0.01 0.00 0.01 0.01 0.01 0.28 0.50 0.40 0.28 0.39 0.19 0.22 0.52 0.56 0.68 0.38 0.20 0.34 0.47 0.28 0.26
0.00 0.00 0.00 0.01 0.00 0.00 0.00 0.00 0.00 0.00 0.00 0.00 0.00 0.00 0.00 0.00 0.04 0.13 0.05 0.00 0.00 0.00 0.00 0.00 0.00 0.00 0.00 0.00 0.00 0.00 0.00 0.00 0.00 0.00 0.00 0.00 0.00 0.00 0.00 0.00 0.00 0.00 0.00 0.00 0.00 0.00 0.00 0.00 0.00 0.00 0.00 0.00 0.00 0.00 0.00 0.00 0.00 0.00 0.00 0.00 0.00 0.00 0.00 0.00 0.01 0.01 0.03 0.01 0.01 0.02 0.00 0.02 0.15 0.39 0.44 0.15 0.10 0.11 0.12 0.25 0.15 0.48 0.53 0.43 0.13 0.34 0.41 0.28
0.00 0.00 0.00 0.00 0.00 0.01 0.00 0.00 0.00 0.00 0.00 0.00 0.00 0.00 0.00 0.05 0.02 0.11 0.06 0.00 0.03 0.00 0.01 0.00 0.00 0.00 0.00 0.00 0.00 0.00 0.00 0.00 0.00 0.00 0.00 0.00 0.00 0.00 0.00 0.00 0.00 0.00 0.01 0.00 0.00 0.00 0.00 0.00 0.00 0.00 0.00 0.00 0.00 0.00 0.00 0.00 0.00 0.00 0.00 0.00 0.00 0.01 0.00 0.03 0.01 0.11 0.02 0.02 0.08 0.01 0.00 0.04 0.02 0.04 0.35 0.08 0.04 0.03 0.07 0.21 0.09 0.09 0.28 0.34 0.27 0.18 0.23 0.31
0.00 0.00 0.00 0.00 0.00 0.00 0.00 0.00 0.00 0.00 0.00 0.00 0.00 0.00 0.05 0.19 0.17 0.07 0.02 0.00 0.01 0.00 0.00 0.00 0.01 0.00 0.00 0.00 0.00 0.00 0.00 0.00 0.00 0.00 0.00 0.00 0.00 0.00 0.00 0.00 0.00 0.00 0.07 0.01 0.00 0.00 0.00 0.00 0.00 0.00 0.00 0.00 0.00 0.00 0.00 0.00 0.00 0.00 0.00 0.00 0.00 0.00 0.01 0.01 0.01 0.01 0.04 0.00 0.00 0.00 0.01 0.04 0.15 0.10 0.10 0.20 0.09 0.01 0.04 0.24 0.14 0.05 0.09 0.19 0.11 0.10 0.28 0.36
0.00 0.00 0.00 0.00 0.00 0.00 0.00 0.00 0.00 0.00 0.00 0.00 0.00 0.00 0.03 0.07 0.09 0.01 0.01 0.00 0.00 0.00 0.00 0.01 0.00 0.00 0.00 0.01 0.00 0.00 0.03 0.00 0.00 0.00 0.00 0.01 0.00 0.00 0.00 0.00 0.00 0.00 0.00 0.02 0.04 0.00 0.02 0.00 0.00 0.00 0.00 0.00 0.00 0.00 0.00 0.00 0.00 0.00 0.00 0.00 0.00 0.00 0.00 0.00 0.00 0.01 0.00 0.05 0.06 0.03 0.02 0.40 0.08 0.55 0.09 0.17 0.09 0.02 0.01 0.07 0.16 0.02 0.04 0.05 0.15 0.06 0.19 0.58
0.00 0.00 0.00 0.00 0.00 0.00 0.00 0.00 0.00 0.00 0.00 0.00 0.00 0.14 0.12 0.08 0.03 0.06 0.05 0.00 0.00 0.00 0.00 0.00 0.00 0.00 0.00 0.00 0.00 0.00 0.00 0.00 0.00 0.00 0.00 0.01 0.04 0.00 0.01 0.00 0.00 0.00 0.00 0.00 0.00 0.00 0.00 0.00 0.00 0.00 0.00 0.00 0.00 0.00 0.00 0.00 0.00 0.00 0.00 0.00 0.00 0.00 0.00 0.02 0.03 0.00 0.00 0.03 0.09 0.02 0.08 0.11 0.35 0.06 0.30 0.13 0.05 0.05 0.04 0.20 0.11 0.03 0.03 0.11 0.13 0.07 0.17 0.41
0.00 0.00 0.00 0.00 0.00 0.00 0.00 0.00 0.00 0.00 0.00 0.00 0.06 0.13 0.17 0.03 0.02 0.00 0.00 0.00 0.00 0.01 0.00 0.00 0.00 0.00 0.00 0.00 0.00 0.00 0.00 0.00 0.00 0.00 0.00 0.00 0.00 0.02 0.00 0.00 0.01 0.00 0.00 0.00 0.03 0.03 0.00 0.01 0.00 0.00 0.00 0.00 0.00 0.00 0.00 0.00 0.00 0.00 0.00 0.00 0.00 0.00 0.01 0.00 0.00 0.00 0.01 0.00 0.01 0.01 0.05 0.09 0.02 0.11 0.18 0.23 0.26 0.20 0.10 0.07 0.21 0.11 0.04 0.05 0.03 0.09 0.08 0.32
0.00 0.00 0.00 0.00 0.00 0.00 0.00 0.00 0.00 0.00 0.00 0.03 0.08 0.26 0.03 0.00 0.00 0.00 0.00 0.00 0.00 0.00 0.00 0.00 0.01 0.01 0.00 0.00 0.00 0.00 0.00 0.00 0.01 0.00 0.03 0.00 0.00 0.00 0.00 0.00 0.00 0.00 0.00 0.00 0.00 0.00 0.00 0.01 0.00 0.00 0.00 0.00 0.00 0.00 0.00 0.00 0.00 0.00 0.00 0.00 0.00 0.00 0.00 0.00 0.00 0.01 0.01 0.01 0.07 0.02 0.06 0.02 0.10 0.51 0.54 0.32 0.08 0.17 0.25 0.09 0.02 0.17 0.13 0.05 0.05 0.07 0.05 0.12
0.00 0.00 0.00 0.00 0.00 0.00 0.00 0.00 0.00 0.00 0.01 0.10 0.08 0.01 0.00 0.01 0.00 0.00 0.00 0.00 0.00 0.00 0.00 0.07 0.00 0.00 0.01 0.00 0.02 0.01 0.00 0.01 0.00 0.00 0.02 0.00 0.01 0.00 0.00 0.00 0.00 0.00 0.00 0.00 0.00 0.00 0.00 0.01 0.00 0.00 0.00 0.00 0.00 0.00 0.00 0.00 0.00 0.00 0.00 0.00 0.00 0.00 0.00 0.00 0.00 0.00 0.00 0.00 0.06 0.02 0.05 0.06 0.05 0.21 0.04 0.08 0.12 0.09 0.13 0.06 0.08 0.24 0.32 0.15 0.08 0.07 0.06 0.05
0.00 0.00 0.00 0.00 0.00 0.00 0.00 0.00 0.00 0.00 0.06 0.16 0.12 0.18 0.02 0.03 0.00 0.00 0.00 0.00 0.00 0.00 0.01 0.04 0.04 0.00 0.00 0.00 0.00 0.01 0.01 0.03 0.00 0.01 0.01 0.01 0.01 0.00 0.00 0.00 0.00 0.00 0.00 0.00 0.00 0.00 0.00 0.01 0.01 0.00 0.00 0.00 0.00 0.00 0.00 0.00 0.00 0.00 0.00 0.00 0.00 0.00 0.00 0.00 0.00 0.01 0.00 0.06 0.00 0.37 0.39 0.31 0.13 0.27 0.29 0.17 0.27 0.21 0.41 0.25 0.20 0.26 0.50 0.11 0.03 0.05 0.05 0.09
0.00 0.00 0.00 0.00 0.00 0.00 0.00 0.00 0.00 0.01 0.07 0.23 0.13 0.05 0.02 0.02 0.00 0.00 0.00 0.00 0.00 0.00 0.06 0.04 0.00 0.01 0.00 0.01 0.00 0.01 0.01 0.02 0.01 0.01 0.00 0.02 0.00 0.00 0.00 0.00 0.00 0.00 0.00 0.00 0.00 0.00 0.00 0.01 0.02 0.01 0.00 0.00 0.00 0.00 0.00 0.00 0.00 0.00 0.00 0.00 0.00 0.00 0.00 0.00 0.00 0.00 0.01 0.04 0.01 0.05 0.24 0.33 0.60 0.71 0.57 0.60 0.96 0.52 0.75 0.33 0.28 0.39 0.26 0.11 0.07 0.06 0.07 0.08
0.00 0.00 0.01 0.00 0.00 0.00 0.00 0.00 0.03 0.04 0.06 0.16 0.02 0.06 0.01 0.01 0.00 0.00 0.00 0.00 0.02 0.00 0.00 0.00 0.00 0.02 0.00 0.00 0.00 0.00 0.01 0.02 0.01 0.03 0.01 0.00 0.00 0.02 0.00 0.00 0.00 0.00 0.00 0.00 0.00 0.00 0.02 0.00 0.04 0.01 0.00 0.00 0.00 0.00 0.00 0.00 0.00 0.00 0.00 0.00 0.00 0.00 0.00 0.00 0.00 0.00 0.00 0.00 0.00 0.02 0.11 0.17 0.25 0.24 0.54 1.22 0.40 0.62 0.89 0.12 0.37 0.32 0.23 0.15 0.06 0.04 0.06 0.07
0.00 0.05 0.00 0.00 0.00 0.00 0.00 0.02 0.03 0.01 0.02 0.07 0.10 0.01 0.01 0.01 0.01 0.01 0.01 0.02 0.03 0.07 0.01 0.00 0.00 0.00 0.00 0.01 0.00 0.00 0.01 0.01 0.01 0.03 0.02 0.03 0.00 0.00 0.00 0.00 0.00 0.00 0.00 0.00 0.00 0.01 0.00 0.01 0.00 0.01 0.00 0.01 0.00 0.00 0.00 0.00 0.00 0.00 0.00 0.00 0.00 0.00 0.00 0.00 0.00 0.00 0.00 0.00 0.00 0.08 0.05 0.41 0.16 0.25 0.14 0.52 0.33 0.38 0.48 0.47 0.35 0.50 0.40 0.40 0.31 0.33 0.18 0.39
0.00 0.00 0.00 0.00 0.00 0.00 0.00 0.04 0.01 0.02 0.03 0.03 0.00 0.04 0.01 0.05 0.03 0.04 0.02 0.02 0.03 0.07 0.02 0.01 0.02 0.02 0.00 0.00 0.00 0.00 0.00 0.02 0.02 0.03 0.04 0.03 0.02 0.00 0.00 0.00 0.00 0.00 0.00 0.00 0.00 0.00 0.00 0.03 0.02 0.00 0.00 0.00 0.01 0.00 0.00 0.00 0.00 0.00 0.00 0.00 0.00 0.00 0.00 0.00 0.00 0.01 0.00 0.09 0.02 0.06 0.06 0.30 0.17 0.33 0.83 0.66 0.88 0.70 0.49 0.87 0.49 0.51 0.71 0.49 0.21 0.64 0.79 0.64
0.00 0.00 0.00 0.00 0.00 0.00 0.02 0.05 0.02 0.00 0.01 0.01 0.03 0.03 0.01 0.04 0.02 0.06 0.09 0.10 0.11 0.05 0.06 0.04 0.01 0.03 0.02 0.01 0.01 0.01 0.05 0.04 0.04 0.03 0.05 0.05 0.04 0.01 0.00 0.00 0.00 0.00 0.00 0.01 0.01 0.02 0.01 0.01 0.01 0.02 0.05 0.02 0.00 0.00 0.00 0.00 0.00 0.00 0.00 0.00 0.00 0.00 0.00 0.00 0.00 0.02 0.01 0.00 0.01 0.03 0.23 0.28 0.30 0.15 0.23 0.39 0.86 0.69 0.56 0.35 0.15 0.30 0.30 0.36 0.43 0.34 0.58 0.72
0.02 0.00 0.00 0.00 0.00 0.00 0.07 0.02 0.02 0.03 0.01 0.01 0.01 0.03 0.06 0.08 0.06 0.03 0.03 0.09 0.05 0.07 0.06 0.12 0.09 0.04 0.05 0.08 0.04 0.02 0.03 0.04 0.07 0.06 0.05 0.07 0.06 0.03 0.01 0.01 0.01 0.00 0.00 0.00 0.00 0.00 0.01 0.03 0.05 0.09 0.12 0.08 0.14 0.06 0.11 0.13 0.00 0.00 0.00 0.00 0.01 0.01 0.01 0.00 0.01 0.00 0.00 0.03 0.00 0.02 0.22 0.35 0.37 0.32 0.29 0.49 0.48 0.16 0.33 0.33 0.26 0.28 0.16 0.08 0.10 0.19 0.17 0.35
0.01 0.06 0.00 0.00 0.00 0.05 0.02 0.00 0.03 0.02 0.05 0.03 0.02 0.02 0.01 0.08 0.10 0.07 0.04 0.04 0.08 0.10 0.06 0.09 0.06 0.04 0.14 0.07 0.09 0.05 0.04 0.04 0.10 0.17 0.11 0.11 0.09 0.06 0.04 0.02 0.02 0.01 0.01 0.00 0.01 0.00 0.00 0.00 0.00 0.00 0.11 0.10 0.34 0.14 0.02 0.00 0.03 0.05 0.01 0.00 0.01 0.00 0.01 0.01 0.01 0.01 0.00 0.12 0.04 0.07 0.03 0.16 0.19 0.38 0.48 0.31 0.82 0.52 0.28 0.77 0.22 0.23 0.27 0.15 0.15 0.42 0.27 0.35
0.16 0.08 0.01 0.02 0.03 0.09 0.01 0.05 0.05 0.06 0.10 0.10 0.06 0.04 0.05 0.04 0.04 0.07 0.09 0.13 0.21 0.11 0.08 0.12 0.20 0.11 0.18 0.12 0.21 0.06 0.03 0.05 0.06 0.09 0.14 0.20 0.13 0.09 0.06 0.04 0.03 0.01 0.03 0.01 0.01 0.00 0.00 0.00 0.00 0.00 0.01 0.04 0.01 0.02 0.00 0.00 0.00 0.00 0.00 0.02 0.02 0.01 0.01 0.04 0.01 0.08 0.02 0.01 0.02 0.04 0.08 0.14 0.16 0.17 0.19 0.38 0.44 0.29 0.17 0.34 0.16 0.21 0.24 0.28 0.28 0.24 0.10 0.17
0.25 0.09 0.05 0.43 0.16 0.08 0.05 0.08 0.07 0.09 0.11 0.10 0.10 0.17 0.05 0.05 0.03 0.06 0.06 0.10 0.14 0.37 0.20 0.33 0.20 0.11 0.20 0.15 0.06 0.20 0.12 0.06 0.07 0.26 0.18 0.17 0.09 0.10 0.10 0.10 0.05 0.06 0.03 0.01 0.00 0.02 0.03 0.02 0.01 0.01 0.01 0.03 0.03 0.01 0.01 0.00 0.00 0.00 0.00 0.01 0.01 0.00 0.04 0.00 0.01 0.01 0.05 0.06 0.21 0.20 0.06 0.10 0.06 0.08 0.07 0.21 0.37 0.12 0.17 0.34 0.23 0.42 0.36 0.31 0.43 0.45 0.14 0.13
0.10 0.08 0.05 0.12 0.21 0.11 0.10 0.09 0.04 0.11 0.06 0.06 0.09 0.10 0.12 0.05 0.05 0.03 0.02 0.08 0.11 0.18 0.21 0.25 0.22 0.18 0.10 0.10 0.13 0.22 0.15 0.16 0.23 0.23 0.21 0.21 0.15 0.16 0.21 0.19 0.10 0.06 0.09 0.03 0.02 0.00 0.01 0.03 0.00 0.00 0.01 0.01 0.01 0.01 0.00 0.01 0.01 0.00 0.01 0.00 0.00 0.00 0.00 0.00 0.00 0.00 0.02 0.02 0.00 0.06 0.29 0.21 0.51 0.39 0.14 0.15 0.09 0.19 0.21 0.31 0.34 0.15 0.45 0.30 0.79 0.61 0.51 0.24
0.22 0.34 0.51 0.17 0.19 0.11 0.10 0.09 0.10 0.04 0.07 0.17 0.13 0.08 0.15 0.12 0.08 0.04 0.03 0.21 0.17 0.34 0.22 0.20 0.16 0.23 0.17 0.16 0.14 0.20 0.16 0.07 0.18 0.15 0.10 0.09 0.10 0.11 0.18 0.16 0.24 0.16 0.09 0.07 0.02 0.07 0.00 0.06 0.00 0.02 0.04 0.02 0.03 0.02 0.01 0.00 0.00 0.01 0.00 0.00 0.01 0.01 0.01 0.00 0.00 0.00 0.02 0.02 0.05 0.06 0.15 0.51 0.35 0.53 0.75 0.50 0.29 0.42 0.21 0.23 0.50 0.54 0.34 0.35 0.28 0.43 0.35 0.44
0.38 0.49 0.90 0.75 0.43 0.14 0.24 0.09 0.20 0.14 0.15 0.11 0.19 0.20 0.09 0.13 0.08 0.05 0.04 0.08 0.14 0.32 0.22 0.13 0.13 0.10 0.09 0.11 0.12 0.18 0.15 0.04 0.03 0.04 0.04 0.04 0.13 0.17 0.21 0.40 0.14 0.20 0.19 0.13 0.05 0.08 0.00 0.04 0.00 0.02 0.03 0.05 0.01 0.05 0.03 0.03 0.00 0.00 0.00 0.00 0.00 0.00 0.01 0.02 0.08 0.12 0.02 0.02 0.01 0.08 0.08 0.29 0.39 0.28 0.25 0.42 0.41 0.27 0.30 0.33 0.46 0.89 0.35 0.32 0.56 0.31 0.44 0.51
0.89 0.74 0.58 0.92 0.66 0.25 0.19 0.10 0.13 0.21 0.12 0.13 0.26 0.24 0.19 0.24 0.04 0.06 0.12 0.22 0.17 0.25 0.19 0.11 0.15 0.10 0.10 0.11 0.16 0.13 0.06 0.02 0.00 0.00 0.00 0.01 0.02 0.03 0.05 0.08 0.09 0.12 0.21 0.21 0.08 0.13 0.06 0.10 0.04 0.06 0.03 0.05 0.03 0.06 0.12 0.05 0.07 0.03 0.01 0.04 0.00 0.01 0.00 0.01 0.03 0.05 0.18 0.06 0.08 0.11 0.39 0.30 0.19 0.06 0.22 0.23 0.19 0.33 0.26 0.32 0.31 0.83 0.62 0.60 0.50 0.70 0.41 0.35